San Angelo, TX

2:36 AM CDT on May 25, 2017 (GMT -0500)
San Angelo Regional-Mathis

Weather History for KSJT - July, 2013

Change the Weather History Date:

Friday, July 12, 2013

  Actual Average Record
Temperature  
Mean Temperature 88 °F 83 °F  
Max Temperature 102 °F 95 °F 108 °F (1933)
Min Temperature 74 °F 71 °F 62 °F (1912)
Degree Days  
Heating Degree Days 0 0  
Month to date heating degree days 0 0  
Since 1 June heating degree days 0 0  
Since 1 July heating degree days 0 0  
Cooling Degree Days 23 18  
Month to date cooling degree days 218 212  
Year to date cooling degree days 1375 1136  
Since 1 June cooling degree days 779 676  
Growing Degree Days 38 (Base 50)    
Moisture  
Dew Point 55 °F    
Average Humidity 38    
Maximum Humidity 62    
Minimum Humidity 14    
Precipitation  
Precipitation 0.00 in 0.04 in 0.20 in (1943)
Month to date precipitation 0.01 0.54  
Year to date precipitation 7.79 11.15  
Sea Level Pressure  
Sea Level Pressure 29.87 in    
Wind  
Wind Speed 7 mph (SSE)    
Max Wind Speed 20 mph    
Max Gust Speed 25 mph    
Visibility 10 miles    
Events      
T = Trace of Precipitation, MM = Missing Value Source: NWS Daily Summary

Daily Weather History Graph

Daily Weather History Graph

Search for Another Location

Airport or City:

Trip Planner

Search our weather history database for the weather conditions in past years. The results will help you decide how hot, cold, wet, or windy it might be!

Date:

Astronomy

Jul. 12, 2013 Rise Set
Actual Time 6:46 AM CDT 8:48 PM CDT
Civil Twilight 6:19 AM CDT 9:16 PM CDT
Nautical Twilight 5:45 AM CDT 9:49 PM CDT
Astronomical Twilight 5:09 AM CDT 10:25 PM CDT
Moon 10:45 AM CDT (7/12) 11:21 PM CDT (7/12)
Length of Visible Light 14h 56m
Length of Day
14h 02m
Waxing Crescent, 17% of the Moon is Illuminated
Jul 12
Waxing Crescent
Jul 15
First Quarter
Jul 22
Full
Jul 29
Last Quarter
Aug 6
New

Hourly Weather History & Observations

Time (CDT) Temp. Heat Index Dew Point Humidity Pressure Visibility Wind Dir Wind Speed Gust Speed Precip Events Conditions
12:51 AM 84.9 °F 84.2 °F 57.9 °F 40% 29.88 in 10.0 mi South 3.5 mph - N/A   Clear
1:51 AM 82.0 °F 82.0 °F 57.9 °F 44% 29.88 in 10.0 mi South 4.6 mph - N/A   Clear
2:51 AM 81.0 °F 81.1 °F 57.9 °F 45% 29.88 in 10.0 mi Calm Calm - N/A   Clear
3:51 AM 78.1 °F - 57.9 °F 50% 29.88 in 10.0 mi South 5.8 mph - N/A   Clear
4:51 AM 75.9 °F - 57.9 °F 54% 29.88 in 10.0 mi South 5.8 mph - N/A   Clear
5:51 AM 75.9 °F - 59.0 °F 56% 29.89 in 10.0 mi South 3.5 mph - N/A   Clear
6:51 AM 75.0 °F - 60.1 °F 60% 29.91 in 10.0 mi South 4.6 mph - N/A   Clear
7:51 AM 77.0 °F - 63.0 °F 62% 29.92 in 10.0 mi SSW 6.9 mph - N/A   Clear
8:51 AM 81.0 °F 83.0 °F 66.0 °F 60% 29.92 in 10.0 mi SSW 8.1 mph - N/A   Clear
9:51 AM 84.9 °F 87.6 °F 66.9 °F 55% 29.92 in 10.0 mi South 9.2 mph - N/A   Clear
10:51 AM 90.0 °F 91.7 °F 64.9 °F 43% 29.92 in 10.0 mi South 6.9 mph - N/A   Clear
11:51 AM 91.9 °F 91.8 °F 61.0 °F 35% 29.91 in 10.0 mi Calm Calm - N/A   Clear
12:51 PM 96.1 °F 96.0 °F 60.1 °F 30% 29.90 in 10.0 mi SE 8.1 mph - N/A   Clear
1:51 PM 98.1 °F 96.8 °F 57.0 °F 25% 29.88 in 10.0 mi SE 11.5 mph 17.3 mph N/A   Partly Cloudy
2:51 PM 99.0 °F - 52.0 °F 21% 29.86 in 10.0 mi SSE 10.4 mph 16.1 mph N/A   Partly Cloudy
3:51 PM 100.9 °F - 50.0 °F 18% 29.85 in 10.0 mi South 11.5 mph 18.4 mph N/A   Partly Cloudy
4:51 PM 100.9 °F - 48.9 °F 17% 29.84 in 10.0 mi SE 12.7 mph 20.7 mph N/A   Scattered Clouds
5:51 PM 100.9 °F - 48.9 °F 17% 29.83 in 10.0 mi SSE 9.2 mph 24.2 mph N/A   Partly Cloudy
6:51 PM 100.0 °F - 45.0 °F 15% 29.82 in 10.0 mi East 8.1 mph 18.4 mph N/A   Scattered Clouds
7:51 PM 98.1 °F - 41.0 °F 14% 29.82 in 10.0 mi SE 11.5 mph - N/A   Scattered Clouds
8:51 PM 95.0 °F - 44.1 °F 17% 29.83 in 10.0 mi SE 10.4 mph - N/A   Clear
9:51 PM 89.1 °F - 45.0 °F 22% 29.84 in 10.0 mi SE 5.8 mph - N/A   Clear
10:51 PM 87.1 °F - 48.0 °F 26% 29.85 in 10.0 mi SSE 6.9 mph - N/A   Clear
11:51 PM 84.9 °F - 50.0 °F 30% 29.88 in 10.0 mi South 5.8 mph - N/A   Clear